Flag for Lithuania Weather past 2 weeks in Kaunas, Lithuania

Now
52 °F

Sprinkles. Overcast.


Feels Like: 47 °F
Forecast: 33 / 48 °F
Wind: 16 mph from West

Location: Kaunas

Current Time: Oct 21, 2014 at 3:34:49 AM

Latest Report: Oct 21, 2014 at 2:50 AM


Visibility: N/A

Pressure: 29.53 "Hg

Humidity: 88%

Dew point: 48 °F

Location of KaunasLocation

Historic Weather in Kaunas — Graph

°F

Kaunas temperature yesterday

Maximum temperature yesterday: 57 °F (at 1:20 AM)
Minimum temperature yesterday: 52 °F (at 7:20 PM)
Average temperature yesterday: 55 °F

Past Weeks' High & Low Weather Summary

 TemperatureHumidityPressure
High70 °F (Oct 10, 2:50 PM)100% (Oct 15, 4:20 AM)30.42 "Hg (Oct 15, 4:20 AM)
Low27 °F (Oct 19, 12:20 AM)44% (Oct 7, 3:20 PM)29.50 "Hg (Oct 20, 5:50 PM)
Average50 °F80%29.96 "Hg
* Reported Oct 6 2:20 AM — Oct 21 2:20 AM, Kaunas, Weather by CustomWeather, © 2014

Note: Actual official high and low records may vary slightly from our data, if they occured in-between our weather recording intervals... More about our weather records

Advertising

Kaunas weather history for previous 24 hours

 ConditionsComfort  
Time TempWeatherWind HumidityBarometerVisibility
2:20 AM
Oct 21
52 °FOvercast.14 mph88%29.53 "HgN/A
1:50 AM52 °FMostly cloudy.17 mph88%29.53 "HgN/A
1:20 AM52 °FOvercast.15 mph88%29.53 "HgN/A
12:50 AM52 °FSprinkles. Overcast.16 mph88%29.53 "HgN/A
12:20 AM52 °FSprinkles. Overcast.14 mph88%29.53 "HgN/A
11:50 PM
Oct 20
52 °FOvercast.13 mph88%29.53 "HgN/A
11:20 PM52 °FOvercast.15 mph88%29.53 "HgN/A
10:50 PM52 °FMostly cloudy.14 mph88%29.53 "HgN/A
10:20 PM52 °FOvercast.14 mph88%29.53 "HgN/A
9:50 PM52 °FMostly cloudy.12 mph88%29.53 "HgN/A
9:20 PM52 °FLight rain. Mostly cloudy.14 mph88%29.53 "Hg6 mi
8:50 PM52 °FMostly cloudy.14 mph88%29.53 "HgN/A
8:20 PM54 °FMostly cloudy.15 mph82%29.53 "HgN/A
7:50 PM52 °FMostly cloudy.16 mph88%29.53 "HgN/A
7:20 PM52 °FMostly cloudy.14 mph88%29.53 "HgN/A
6:50 PM54 °FMostly cloudy.15 mph88%29.53 "HgN/A
6:20 PM54 °FLight rain. Cloudy.15 mph88%29.50 "Hg6 mi
5:50 PM55 °FCloudy.13 mph82%29.50 "HgN/A
5:20 PM54 °FLight rain. Mostly cloudy.12 mph94%29.53 "Hg4 mi
4:50 PM55 °FSprinkles. More clouds than sun.13 mph88%29.53 "HgN/A
4:20 PM55 °FScattered showers. More clouds than sun.13 mph88%29.53 "HgN/A
3:50 PM55 °FSprinkles. More clouds than sun.8 mph88%29.53 "HgN/A
3:20 PM54 °FScattered showers. More clouds than sun.14 mph94%29.53 "HgN/A
2:50 PM55 °FSprinkles. Cloudy.16 mph88%29.53 "Hg4 mi
2:20 PM55 °FSprinkles. More clouds than sun.15 mph88%29.53 "HgN/A
1:50 PM57 °FSprinkles. Cloudy.13 mph82%29.53 "Hg4 mi
1:20 PM55 °FSprinkles. Broken clouds.12 mph88%29.56 "HgN/A
12:50 PM57 °FSprinkles. More clouds than sun.13 mph82%29.56 "HgN/A
12:20 PM57 °FBroken clouds.15 mph77%29.56 "HgN/A
11:50 AM57 °FOvercast.12 mph77%29.56 "HgN/A
11:20 AM55 °FCloudy.15 mph82%29.56 "HgN/A
10:50 AM57 °FMostly cloudy.15 mph77%29.56 "HgN/A
10:20 AM57 °FBroken clouds.16 mph82%29.56 "HgN/A
9:50 AM55 °FBroken clouds.14 mph88%29.56 "HgN/A
9:20 AM55 °FBroken clouds.15 mph88%29.56 "HgN/A
8:50 AM55 °FOvercast.14 mph88%29.56 "HgN/A
8:20 AM55 °FMostly cloudy.9 mph88%29.56 "HgN/A
7:50 AM55 °FMostly cloudy.8 mph94%29.56 "HgN/A
6:20 AM57 °FOvercast.10 mph88%29.56 "HgN/A
5:50 AM57 °FMostly cloudy.9 mph88%29.56 "HgN/A
5:20 AM57 °FLight rain. Mostly cloudy.9 mph88%29.56 "Hg6 mi
4:50 AM57 °FLight rain. Low clouds.13 mph88%29.56 "Hg5 mi
4:20 AM57 °FLight rain. Low clouds.16 mph88%29.56 "Hg6 mi
3:50 AM57 °FLight rain. Low clouds.15 mph88%29.56 "HgN/A
3:20 AM57 °FLight rain. Overcast.14 mph88%29.56 "HgN/A
Weather by CustomWeather, © 2014

See weather overviewHow to use our weather pages